Regional Weather Roundup
Issued by NWS

Home | Current Version | Previous Version | Text Only | Print | Product List | Glossary Off
Versions: 1 2 3 4 5 6 7 8 9 10 11 12 13 14 15 16 17 18 19 20 21 22 23 24 25 26 27 28 29 30 31 32 33 34 35 36 37 38 39 40 41 42 43 44 45 46 47 48 49 50

160
ASUS44 KMEG 212200
RWRTN
TENNESSEE HOURLY STATE WEATHER ROUNDUP
NATIONAL WEATHER SERVICE MEMPHIS TN
500 PM CDT THU MAY 21 2015

TNZ002-004-019-021-049-052-054-088>092-212300-
WEST TENNESSEE

CITY           SKY/WX    TMP DP  RH WIND       PRES   REMARKS
MEMPHIS INTL   CLOUDY    56  44  64 N10       30.21S
NWS MEMPHIS      N/A     55 N/A N/A MISG        N/A
JACKSON        CLOUDY    56  45  66 NW8       30.19F
DYERSBURG      CLOUDY    55  36  47 N9        30.22S
PARIS          CLOUDY    55  43  62 NW6       30.18S
LEXINGTON      CLOUDY    55  45  67 N9        30.17S
$$

TNZ008-025-027-028-033-062-065-066-212300-
NORTH MIDDLE TENNESSEE

CITY           SKY/WX    TMP DP  RH WIND       PRES   REMARKS
NASHVILLE      CLOUDY    58  45  62 N12       30.15S
CLARKSVILLE    CLOUDY    57  45  64 NW7       30.16S
SMYRNA         CLOUDY    57  46  67 NW10      30.16S
COOKEVILLE     CLOUDY    55  50  82 NW6       30.12R
CROSSVILLE     CLOUDY    52  46  80 NW10      30.11R
$$

TNZ061-075-076-078-094-096-097-212300-
SOUTH MIDDLE TENNESSEE

CITY           SKY/WX    TMP DP  RH WIND       PRES   REMARKS
FAYETTEVILLE   CLOUDY   N/A N/A N/A MISG      30.13S
TULLAHOMA      CLOUDY    54  46  76 N13       30.14S
WINCHESTER     CLOUDY    55  48  76 N10       30.13S
SHELBYVILLE    CLOUDY    55  50  82 N7        30.15F
$$

TNZ017-018-042-046-047-212300-
NORTHEAST TENNESSEE

CITY           SKY/WX    TMP DP  RH WIND       PRES   REMARKS
TRI CITIES     PTSUNNY   64  49  57 W20G25    29.99R
$$

TNZ012-013-036-069-073-074-212300-
CENTRAL EAST TENNESSEE

CITY           SKY/WX    TMP DP  RH WIND       PRES   REMARKS
KNOXVILLE      CLOUDY    61  49  64 W15G24    30.05R
OAK RIDGE      CLOUDY    61  48  62 NW6       30.08R
GATLINBURG     CLOUDY    63  52  67 S9        30.03R
$$

TNZ083-085-099-212300-
SOUTHEAST TENNESSEE

CITY           SKY/WX    TMP DP  RH WIND       PRES   REMARKS
CHATTANOOGA    PTSUNNY   61  50  67 NW14      30.09R
$$

SKY/WX REPORTED AS FAIR MEANS FEW OR NO CLOUDS BELOW
12 THOUSAND FEET.




USA.gov is the U.S. government's official web portal to all federal, state and local government web resources and services.